Tracking 28799 objects as of 18-Apr-2024
HD Live streaming from Space Station
objects crossing your sky now

COSMOS 836

Track COSMOS 836 now!
10-day predictions
COSMOS 836 is classified as:


NORAD ID: 8923
Int'l Code: 1976-061A
Perigee: 774.7 km
Apogee: 799.2 km
Inclination: 74.1 °
Period: 100.4 minutes
Semi major axis: 7157 km
RCS: 1.916 m2 (large)
Launch date: June 29, 1976
Source: Commonwealth of Independent States (former USSR) (CIS)
Launch site: PLESETSK MISSILE AND SPACE COMPLEX (PKMTR)
Your satellite tracking list
Your tracking list is empty




NASA's NSSDC Master Catalog

Two Line Element Set (TLE):
1 08923U 76061A   24108.88702967  .00000457  00000-0  17412-3 0  9998
2 08923  74.0545 339.5976 0017118  51.7064 308.5624 14.33571398496935
Source of the keplerian elements: AFSPC